Location: Assche-ter-Heiden
(50.9174°N, 4.1574°E)
Time: 21:20:59
(UTC+00:00)

Cosmos 1697 Rocket - Pass Details

Date: 20 January 2020
Orbit: 833 x 843 km, 71.0° (Epoch: 25 February)

Event Time Altitude Azimuth Distance (km) Brightness Sun altitude
Exits shadow 06:41:17 - 256° (WSW) 2,999 5.1 -8.5°
Reaches altitude 10° 06:43:02 10° 265° (W) 2,445 4.6 -8.2°
Maximum altitude 06:47:36 25° 320° (NW) 1,631 3.7 -7.6°
Drops below altitude 10° 06:52:12 10° 15° (NNE) 2,455 5.0 -6.9°
Sets 06:55:06 0° 28° (NNE) 3,394 5.9 -6.5°
